CW8733 Weather Reports


Display with metric or nautical units.
time (UTC)temp
F
wind
direction
speed
MPH
gust
MPH
rain 1hr
in
rain 24hr
in
rain mn
in
humidity
%
barometer
mb
20260510221036 99 225 9.0 18.0 0.00 0.00 0.00 7 1012.2
20260510220016 100 248 9.0 17.0 0.00 0.00 0.00 7 1012.7
20260510215016 100 270 7.0 13.0 0.00 0.00 0.00 7 1012.7
20260510214016 99 248 4.0 9.0 0.00 0.00 0.00 7 1012.9
20260510213015 99 248 8.0 16.0 0.00 0.00 0.00 7 1013.1
20260510212156 99 248 8.0 14.0 0.00 0.00 0.00 8 1013.2
20260510211015 99 180 6.0 12.0 0.00 0.00 0.00 8 1013.3
20260510210036 99 293 7.0 12.0 0.00 0.00 0.00 8 1013.3
20260510205016 100 225 7.0 14.0 0.00 0.00 0.00 7 1013.5
20260510204056 100 180 8.0 16.0 0.00 0.00 0.00 7 1013.7
20260510203035 99 248 7.0 13.0 0.00 0.00 0.00 8 1014.0
20260510202016 98 203 7.0 13.0 0.00 0.00 0.00 8 1014.0
20260510201016 97 225 2.0 3.0 0.00 0.00 0.00 8 1014.1
20260510200015 97 248 7.0 11.0 0.00 0.00 0.00 9 1014.5
20260510195016 97 225 7.0 13.0 0.00 0.00 0.00 9 1014.6
20260510194016 96 270 5.0 8.0 0.00 0.00 0.00 9 1014.5
20260510193035 96 270 3.0 11.0 0.00 0.00 0.00 9 1014.5
20260510192016 96 225 6.0 12.0 0.00 0.00 0.00 9 1014.5
20260510191036 97 180 3.0 8.0 0.00 0.00 0.00 9 1014.6
20260510190015 95 203 3.0 7.0 0.00 0.00 0.00 10 1014.6
20260510185015 95 225 5.0 11.0 0.00 0.00 0.00 9 1014.7
20260510184016 95 225 5.0 10.0 0.00 0.00 0.00 10 1014.8
20260510183015 94 270 1.0 4.0 0.00 0.00 0.00 10 1014.7
20260510182015 94 270 4.0 10.0 0.00 0.00 0.00 10 1014.8
20260510181036 94 270 3.0 6.0 0.00 0.00 0.00 10 1014.8
20260510180035 93 293 4.0 7.0 0.00 0.00 0.00 11 1015.0
20260510175056 92 270 4.0 9.0 0.00 0.00 0.00 11 1014.9
20260510174015 92 248 4.0 7.0 0.00 0.00 0.00 11 1014.9
20260510173156 91 248 2.0 5.0 0.00 0.00 0.00 11 1015.2
20260510172015 91 203 3.0 8.0 0.00 0.00 0.00 12 1015.2
20260510171055 91 248 3.0 6.0 0.00 0.00 0.00 12 1015.3
20260510170035 91 158 2.0 5.0 0.00 0.00 0.00 12 1015.8
20260510165015 90 203 3.0 7.0 0.00 0.00 0.00 12 1015.8
20260510164055 90 248 3.0 6.0 0.00 0.00 0.00 13 1015.6
20260510163016 89 225 2.0 4.0 0.00 0.00 0.00 13 1015.7
20260510162016 89 158 1.0 2.0 0.00 0.00 0.00 13 1015.8
20260510161017 89 203 2.0 6.0 0.00 0.00 0.00 13 1015.8
20260510160018 89 225 2.0 4.0 0.00 0.00 0.00 13 1015.7
20260510155017 89 203 2.0 4.0 0.00 0.00 0.00 13 1015.6
20260510154018 88 180 2.0 5.0 0.00 0.00 0.00 14 1015.6
20260510153018 87 203 3.0 6.0 0.00 0.00 0.00 14 1015.4
20260510152017 86 203 1.0 4.0 0.00 0.00 0.00 15 1015.3
20260510151018 86 270 1.0 2.0 0.00 0.00 0.00 13 1015.2
20260510150017 86 315 2.0 3.0 0.00 0.00 0.00 14 1015.6
20260510145017 85 0.0 3.0 0.00 0.00 0.00 14 1015.4
20260510144017 83 0.0 2.0 0.00 0.00 0.00 17 1015.3
20260510143037 82 0.0 2.0 0.00 0.00 0.00 21 1015.7
20260510142037 80 23 3.0 4.0 0.00 0.00 0.00 18 1015.6
20260510141017 78 23 2.0 3.0 0.00 0.00 0.00 21 1015.3
20260510140017 76 23 1.0 4.0 0.00 0.00 0.00 22 1015.2
20260510135017 74 45 4.0 6.0 0.00 0.00 0.00 23 1014.9
20260510134017 71 45 5.0 8.0 0.00 0.00 0.00 24 1014.5
20260510133017 67 23 3.0 6.0 0.00 0.00 0.00 28 1014.3
20260510132017 65 23 3.0 6.0 0.00 0.00 0.00 32 1013.8
20260510131017 63 45 4.0 6.0 0.00 0.00 0.00 32 1013.7
20260510130017 63 23 3.0 4.0 0.00 0.00 0.00 32 1013.7
20260510125018 62 45 3.0 5.0 0.00 0.00 0.00 33 1013.4
20260510124017 62 45 1.0 2.0 0.00 0.00 0.00 34 1013.4
20260510123017 63 90 2.0 3.0 0.00 0.00 0.00 32 1013.7
20260510122018 63 45 3.0 4.0 0.00 0.00 0.00 33 1013.7
20260510121017 63 135 4.0 7.0 0.00 0.00 0.00 32 1013.6
20260510120017 63 203 4.0 7.0 0.00 0.00 0.00 32 1013.5
20260510115017 64 203 1.0 3.0 0.00 0.00 0.00 30 1013.3
20260510114017 64 45 3.0 5.0 0.00 0.00 0.00 31 1013.2
20260510113017 64 68 1.0 3.0 0.00 0.00 0.00 32 1013.1
20260510112017 65 45 3.0 5.0 0.00 0.00 0.00 29 1013.2
20260510111017 66 0.0 1.0 0.00 0.00 0.00 28 1013.2
20260510110017 67 135 1.0 3.0 0.00 0.00 0.00 28 1013.3
20260510105017 67 23 3.0 4.0 0.00 0.00 0.00 27 1013.1
20260510104017 68 23 3.0 5.0 0.00 0.00 0.00 28 1013.3
20260510103017 68 0 4.0 5.0 0.00 0.00 0.00 26 1013.3
20260510102017 68 0 4.0 5.0 0.00 0.00 0.00 26 1013.3
20260510101037 66 45 5.0 8.0 0.00 0.00 0.00 27 1013.0
20260510100017 64 45 4.0 7.0 0.00 0.00 0.00 32 1012.8
20260510095017 64 23 2.0 3.0 0.00 0.00 0.00 32 1012.7
20260510094017 65 0.0 1.0 0.00 0.00 0.00 31 1012.9
20260510093017 66 68 2.0 3.0 0.00 0.00 0.00 29 1012.9
20260510092017 67 68 1.0 2.0 0.00 0.00 0.00 29 1013.1
20260510091017 68 68 1.0 3.0 0.00 0.00 0.00 28 1013.1
20260510090017 68 113 2.0 3.0 0.00 0.00 0.00 27 1013.1
20260510085017 68 45 2.0 4.0 0.00 0.00 0.00 28 1013.1
20260510084017 68 0.0 2.0 0.00 0.00 0.00 27 1013.1
20260510083017 68 248 1.0 5.0 0.00 0.00 0.00 27 1013.2
20260510082017 70 135 2.0 6.0 0.00 0.00 0.00 25 1013.0
20260510081017 71 158 1.0 2.0 0.00 0.00 0.00 24 1013.3
20260510080017 72 45 3.0 4.0 0.00 0.00 0.00 24 1013.2
20260510075017 72 23 3.0 5.0 0.00 0.00 0.00 23 1013.5
20260510074017 73 23 2.0 3.0 0.00 0.00 0.00 23 1013.7
20260510073017 74 0 1.0 3.0 0.00 0.00 0.00 22 1013.8
20260510072017 74 158 2.0 7.0 0.00 0.00 0.00 21 1013.8
20260510071017 74 158 1.0 5.0 0.00 0.00 0.00 21 1013.8
20260510070017 72 135 5.0 7.0 0.00 0.00 0.00 23 1013.5
20260510065017 72 135 4.0 5.0 0.00 0.00 0.00 24 1013.5
20260510064017 72 45 3.0 5.0 0.00 0.00 0.00 23 1013.5
20260510063017 72 158 2.0 5.0 0.00 0.00 0.00 24 1012.8
20260510062017 70 158 6.0 10.0 0.00 0.00 0.00 25 1012.5
20260510061017 70 270 1.0 4.0 0.00 0.00 0.00 27 1012.3
20260510060017 71 158 1.0 3.0 0.00 0.00 0.00 26 1012.1
20260510055017 72 0.0 0.0 0.00 0.00 0.00 24 1012.0
20260510054017 73 45 2.0 4.0 0.00 0.00 0.00 23 1012.0
20260510053017 73 0 1.0 3.0 0.00 0.00 0.00 21 1011.8
20260510052017 74 0.0 0.0 0.00 0.00 0.00 22 1011.7
20260510051017 75 23 1.0 4.0 0.00 0.00 0.00 21 1011.9
20260510050017 76 90 1.0 3.0 0.00 0.00 0.00 20 1011.7
20260510045017 78 90 1.0 3.0 0.00 0.00 0.00 19 1011.8
20260510044017 80 270 2.0 4.0 0.00 0.00 0.00 18 1011.8
20260510043017 82 0 2.0 4.0 0.00 0.00 0.00 15 1011.6
20260510042017 82 45 3.0 5.0 0.00 0.00 0.00 15 1011.5
20260510041017 82 23 3.0 4.0 0.00 0.00 0.00 14 1011.4
20260510040017 83 23 3.0 6.0 0.00 0.00 0.00 14 1011.1
20260510035017 83 23 4.0 6.0 0.00 0.00 0.00 14 1011.0
20260510034017 83 23 5.0 8.0 0.00 0.00 0.00 14 1010.8
20260510033057 82 23 5.0 7.0 0.00 0.00 0.00 14 1010.5
20260510032017 82 23 4.0 6.0 0.00 0.00 0.00 14 1010.4
20260510031017 82 23 4.0 5.0 0.00 0.00 0.00 14 1010.2
20260510030017 82 23 4.0 6.0 0.00 0.00 0.00 14 1009.6
20260510025037 82 45 3.0 5.0 0.00 0.00 0.00 14 1009.5
20260510024017 84 45 2.0 3.0 0.00 0.00 0.00 13 1009.6
20260510023017 86 68 2.0 3.0 0.00 0.00 0.00 13 1009.6
20260510022017 88 0.0 2.0 0.00 0.00 0.00 11 1009.7
20260510021016 91 293 1.0 5.0 0.00 0.00 0.00 11 1009.8
20260510020017 92 270 3.0 5.0 0.00 0.00 0.00 9 1009.7
20260510015017 93 270 3.0 6.0 0.00 0.00 0.00 9 1009.6
20260510014017 93 293 5.0 10.0 0.00 0.00 0.00 9 1009.5
20260510013017 94 270 3.0 6.0 0.00 0.00 0.00 9 1009.7
20260510012017 95 270 4.0 8.0 0.00 0.00 0.00 8 1009.7
20260510011017 95 270 5.0 9.0 0.00 0.00 0.00 8 1009.8
20260510010017 95 248 7.0 13.0 0.00 0.00 0.00 8 1009.4
20260510005017 95 293 4.0 6.0 0.00 0.00 0.00 8 1009.4
20260510004016 95 293 6.0 10.0 0.00 0.00 0.00 8 1009.6
20260510003016 95 270 6.0 11.0 0.00 0.00 0.00 8 1009.6
20260510002017 96 248 8.0 13.0 0.00 0.00 0.00 8 1009.6
20260510001017 97 315 5.0 10.0 0.00 0.00 0.00 8 1009.6
20260510000017 97 270 6.0 12.0 0.00 0.00 0.00 8 1009.6
20260509235016 97 225 4.0 9.0 0.00 0.00 0.00 8 1009.7
20260509234016 97 293 6.0 12.0 0.00 0.00 0.00 8 1009.7
20260509233016 97 293 9.0 13.0 0.00 0.00 0.00 8 1009.8
20260509232016 97 225 6.0 12.0 0.00 0.00 0.00 8 1009.9
20260509231016 97 270 6.0 10.0 0.00 0.00 0.00 7 1010.0
20260509230017 97 225 6.0 12.0 0.00 0.00 0.00 7 1010.0
20260509225016 97 248 6.0 13.0 0.00 0.00 0.00 8 1010.3
20260509224017 97 225 8.0 15.0 0.00 0.00 0.00 7 1010.4
20260509223016 97 225 7.0 11.0 0.00 0.00 0.00 7 1010.5
20260509222016 97 248 6.0 10.0 0.00 0.00 0.00 8 1010.7